Regional Weather Roundup
Issued by NWS

Home | Current Version | Previous Version | Graphics & Text | Print | Product List | Glossary On
Versions: 1 2 3 4 5 6 7 8 9 10 11 12 13 14 15 16 17 18 19 20 21 22 23 24 25 26 27 28
000
ASUS45 KPSR 031910
RWRAZ

ARIZONA HOURLY REGIONAL WEATHER ROUNDUP
NATIONAL WEATHER SERVICE PHOENIX AZ
1200 PM MST TUE MAY 03 2016

NOTE: FAIR INDICATES FEW OR NO CLOUDS BELOW 12,000 FEET WITH NO
SIGNIFICANT WEATHER AND/OR OBSTRUCTIONS TO VISIBILITY.

AZZ001>003-036-032000-
NORTHWEST ARIZONA

CITY           SKY/WX    TMP DP  RH WIND       PRES   REMARKS
BULLHEAD CITY  SUNNY     86  39  19 N17       29.98F
KINGMAN        SUNNY     78  31  17 VRB7      30.08F
$$

AZZ004>008-015-016-018-032000-
NORTH CENTRAL ARIZONA

CITY           SKY/WX    TMP DP  RH WIND       PRES   REMARKS
GRAND CANYON   SUNNY     61  33  35 E12G20    30.26F
WILLIAMS       SUNNY     63  30  29 SE14      30.30S
PRESCOTT       SUNNY     68  30  24 S9G20     30.15F
FLAGSTAFF      MOSUNNY   57  35  43 E13G20    30.26F
PAYSON         MOSUNNY   70  30  23 VRB5G13   30.16F
PAGE           SUNNY     68  36  30 VRB6      30.20F
$$

AZZ009>014-017-032000-
NORTHEAST ARIZONA

CITY           SKY/WX    TMP DP  RH WIND       PRES   REMARKS
WINSLOW        SUNNY     66  42  41 VRB3      30.21F
SAINT JOHNS    SUNNY     67  33  28 VRB5      30.19F
WINDOW ROCK    MOSUNNY   61  28  28 NE6       30.25F
SHOW LOW       MOSUNNY   59  32  36 N5G16     30.23F
$$

AZZ023-032000-
GREATER PHOENIX AREA

CITY           SKY/WX    TMP DP  RH WIND       PRES   REMARKS
PHOENIX        MOSUNNY   86  36  16 VRB3      29.92F
BUCKEYE        SUNNY     86  37  17 E8        29.95F
GLENDALE       MOSUNNY   86  37  17 CALM      29.95F
LUKE AFB       MOSUNNY   86  39  18 SE7       29.92F
DEER VALLEY    SUNNY     85  36  17 VRB6      29.93F
SCOTTSDALE     SUNNY     86  31  13 SE6       29.95F
MESA-FALCON    SUNNY    N/A N/A N/A W9        29.91F
MESA-GATEWAY   MOSUNNY   86  36  16 CALM      29.94F
CHANDLER       SUNNY     84  36  17 VRB5      29.94F
$$

AZZ027-028-032000-
SOUTHWEST MARICOPA COUNTY AND PINAL COUNTY

CITY           SKY/WX    TMP DP  RH WIND       PRES   REMARKS
CASA GRANDE    SUNNY    N/A N/A N/A MISG        N/A
GILA BEND      SUNNY     88  33  14 VRB7      29.91F
$$

AZZ503-504-507>509-032000-
SOUTHEAST ARIZONA

CITY           SKY/WX    TMP DP  RH WIND       PRES   REMARKS
TUCSON         SUNNY     84  24  11 VRB3      29.99F
DAVIS-MONTHAN  SUNNY     83  28  13 VRB3      29.97F
NOGALES        SUNNY     81  19  10 SE5       30.03F
SIERRA VISTA   SUNNY     76  25  15 VRB5      30.08F
DOUGLAS        SUNNY     79  22  12 W9        30.05F
SAFFORD        SUNNY     80  32  17 MISG      30.02F
$$

AZZ020-021-025-026-031-032000-
SOUTHWEST ARIZONA

CITY           SKY/WX    TMP DP  RH WIND       PRES   REMARKS
YUMA           SUNNY     90  37  15 E7        29.90F
$$

CAZ031-033-041-043-047-048-061-032000-
SOUTHERN CALIFORNIA

CITY           SKY/WX    TMP DP  RH WIND       PRES   REMARKS
DOWNTOWN L.A.  SUNNY     74  56  53 VRB3      29.96S
L.A. AIRPORT   MOSUNNY   67  54  63 W8        29.98F
SAN DIEGO      MOSUNNY   68  56  65 W10       29.99S
BURBANK        SUNNY     80  49  33 SE9       29.95F
ONTARIO        MOSUNNY   85  34  16 E6        29.95F
RIVERSIDE      MOSUNNY   86  34  15 VRB5      29.94F
PALM SPRINGS   SUNNY     90  32  12 SW8G17    29.94F
EL CENTRO NAS  SUNNY     88  36  15 SE8       29.92F
IMPERIAL       SUNNY     92  37  14 VRB6      29.90F
BLYTHE         SUNNY     88  38  17 VRB5      29.93F
NEEDLES        SUNNY     87  37  17 N9        29.97F
$$

NVZ020-UTZ003-032000-
SOUTHERN NEVADA-UTAH

CITY           SKY/WX    TMP DP  RH WIND       PRES   REMARKS
LAS VEGAS      SUNNY     79  34  19 N12       30.04F
SALT LAKE CITY MOSUNNY   68  35  29 N12       30.23F
$$

NMZ009-TXZ055-032000-
NEW MEXICO-WEST TEXAS

CITY           SKY/WX    TMP DP  RH WIND       PRES   REMARKS
ALBUQUERQUE    MOSUNNY   67  30  25 W8        30.20F
EL PASO        MOSUNNY   76  35  22 E8        30.08F
$$


........................KEY........................
SKY/WX - SKY CONDITION/WEATHER
TMP    - TEMPERATURE IN FAHRENHEIT
DP     - DEW POINT IN FAHRENHEIT
RH     - RELATIVE HUMIDITY IN PERCENT
WIND   - DIRECTION AND SPEED IN MILES PER HOUR (MPH)
VRB    - VARIABLE WIND DIRECTION
PRES   - MEAN SEA LEVEL PRESSURE IN INCHES OF MERCURY
         F - FALLING PRESSURE   R - RISING PRESSURE
         S - STEADY PRESSURE
VSB    - VISIBILITY IN MILES
HX     - HEAT INDEX IN FAHRENHEIT
WCI    - WIND CHILL INDEX IN FAHRENHEIT
TC     - TEMPERATURE IN CELSIUS WHICH IS ALSO KNOWN AS
         TEMPERATURE IN CENTIGRADE
AFB    - AIR FORCE BASE
         LUKE AFB IS LUKE AIR FORCE BASE
         DAVIS-MONTHAN IS DAVIS-MONTHAN AIR FORCE BASE
NAS    - NAVAL AIR STATION
         EL CENTRO NAS IS EL CENTRO NAVAL AIR STATION
N/A    - NOT AVAILABLE





USA.gov is the U.S. government's official web portal to all federal, state and local government web resources and services.